CDT,Max TemperatureF,Mean TemperatureF,Min TemperatureF,Max Dew PointF,MeanDew PointF,Min DewpointF,Max Humidity, Mean Humidity, Min Humidity, Max Sea Level PressureIn, Mean Sea Level PressureIn, Min Sea Level PressureIn, Max VisibilityMiles, Mean VisibilityMiles, Min VisibilityMiles, Max Wind SpeedMPH, Mean Wind SpeedMPH, Max Gust SpeedMPH,PrecipitationIn, CloudCover, Events, WindDirDegrees
2013-5-1,85,65,44,64,54,37,99,65,44,30.16,29.88,29.65,10,10,9,32,19,40,0.00,4,Thunderstorm,11
2013-5-2,56,46,39,38,34,25,93,74,33,30.48,30.35,30.19,10,10,4,33,27,50,0.17,7,Rain-Thunderstorm,358
2013-5-3,70,52,33,30,24,17,81,41,13,30.44,30.21,30.01,10,10,8,20,10,25,0.00,0,,327
2013-5-4,73,56,41,39,24,9,79,31,9,30.09,30.01,29.95,10,10,10,24,13,36,0.00,0,,355
2013-5-5,71,56,41,47,41,37,85,68,39,30.22,30.14,30.06,10,10,10,12,8,18,0.00,3,,355
2013-5-6,77,58,41,50,46,41,97,63,32,30.14,30.07,29.99,10,10,8,8,3,,0.00,2,,83
2013-5-7,86,68,50,51,47,44,92,46,23,30.07,29.96,29.83,10,10,10,21,11,28,0.00,2,Rain,142
2013-5-8,88,71,55,64,57,48,82,57,40,29.89,29.82,29.71,10,10,10,20,13,29,0.00,2,Rain-Thunderstorm,159
2013-5-9,82,70,57,63,61,54,100,78,48,29.93,29.86,29.79,10,9,3,18,8,23,0.10,4,Rain-Thunderstorm,66
2013-5-10,73,65,57,62,57,51,100,85,47,30.12,30.01,29.88,10,8,0,31,13,40,1.71,5,Fog-Rain-Thunderstorm,360
2013-5-11,82,68,54,54,49,43,95,56,25,30.25,30.16,30.11,10,10,10,21,8,26,0.00,0,,6
2013-5-12,81,64,46,52,46,33,88,54,23,30.28,30.15,30.04,10,9,2,14,7,22,0.00,0,,162
2013-5-13,91,72,52,52,47,39,86,54,16,30.14,30.08,30.00,10,10,7,22,8,25,0.00,0,,186
2013-5-14,90,72,55,57,51,43,76,44,25,30.06,29.97,29.83,10,10,10,23,11,29,0.00,0,,182
2013-5-15,81,72,64,70,63,51,100,78,44,29.93,29.85,29.70,10,10,4,17,9,,0.02,6,Rain,146
2013-5-16,82,70,60,64,62,60,100,87,51,29.84,29.80,29.74,10,10,7,16,7,21,0.00,4,,57
2013-5-17,89,76,64,74,68,64,100,94,59,29.85,29.80,29.70,10,4,1,17,10,,0.00,7,,90
2013-5-18,99,84,68,73,68,60,100,75,29,29.79,29.68,29.55,10,8,2,26,13,37,0.09,4,Rain-Hail-Thunderstorm,108
2013-5-19,98,84,69,68,50,25,83,42,8,29.63,29.58,29.49,10,10,7,23,15,32,0.00,0,,206
2013-5-20,96,78,59,63,50,32,83,43,10,29.73,29.64,29.56,10,10,10,23,7,31,0.00,0,,302
2013-5-21,78,67,56,64,52,44,94,62,30,29.97,29.82,29.70,10,10,2,22,13,39,0.01,4,Rain-Thunderstorm,7
2013-5-22,89,70,50,55,50,45,100,54,21,29.93,29.85,29.78,10,10,10,17,7,23,0.00,0,,123
2013-5-23,90,76,64,68,63,55,89,66,33,30.01,29.93,29.84,10,10,10,28,17,38,0.00,4,,106
2013-5-24,91,77,64,70,66,60,99,70,42,30.12,30.05,29.98,10,10,10,30,13,36,0.00,3,,124
2013-5-25,88,74,60,68,64,60,100,67,40,30.13,30.05,29.92,10,10,8,25,13,30,0.00,4,,142
2013-5-26,93,80,68,68,66,63,100,68,36,30.02,29.91,29.78,10,10,10,24,16,34,0.01,2,,150
2013-5-27,97,84,71,68,66,63,83,58,33,29.86,29.74,29.59,10,10,10,29,18,39,0.01,1,,169
2013-5-28,82,76,70,70,67,64,86,70,57,29.77,29.70,29.62,10,10,10,29,16,36,0.00,3,,149
2013-5-29,87,80,72,70,66,63,86,67,43,29.74,29.64,29.47,10,9,1,40,18,70,0.13,6,Rain-Hail-Thunderstorm,147
2013-5-30,99,86,73,70,62,32,84,61,10,29.69,29.59,29.52,10,10,10,23,17,30,0.00,4,,179
2013-5-31,104,86,68,70,61,48,79,46,16,29.69,29.58,29.44,10,10,10,25,16,33,0.00,0,,195